Regional Weather Roundup
Issued by NWS

Home | Current Version | Previous Version | Graphics & Text | Print | Product List | Glossary On
Versions: 1 2 3 4 5 6 7 8 9 10 11 12 13 14 15 16 17 18 19 20 21 22 23 24 25 26 27 28 29 30 31 32 33 34 35 36 37 38 39 40 41 42 43 44 45 46 47 48 49 50
000
ASUS43 KFSD 221010
RWRSD

WEATHER ROUNDUP FOR SOUTH DAKOTA
NATIONAL WEATHER SERVICE SIOUX FALLS SD
500 AM CDT WED OCT 22 2014

NOTE: "FAIR" INDICATES FEW OR NO CLOUDS BELOW 12,000 FEET WITH NO
SIGNIFICANT WEATHER AND/OR OBSTRUCTIONS TO VISIBILITY.


SDZ001>005-009-010-012>017-221100-
NORTHWEST AND NORTH CENTRAL SOUTH DAKOTA

CITY           SKY/WX    TMP DP  RH WIND       PRES   REMARKS
BUFFALO          N/A     50  41  71 NW12      29.79R
FAITH            N/A     57  45  64 W13       29.83R
MOBRIDGE       PTCLDY    59  52  77 SE10      29.72S
$$

SDZ012>016-024>037-041>051-057-063-072>074-221100-
SOUTHWEST AND SOUTH CENTRAL SOUTH DAKOTA

CITY           SKY/WX    TMP DP  RH WIND       PRES   REMARKS
RAPID CTY ARPT CLOUDY    57  37  47 N18       29.87R
PIERRE         MOCLDY    59  53  80 SE10      29.77R
CUSTER         CLOUDY    52  37  56 E8        29.95R
ELLSWORTH AFB  CLEAR     57  38  48 N17       29.87S
PHILIP         CLOUDY    66  43  43 NW18      29.81R
PINE RIDGE     CLOUDY    58  48  69 W6        29.89S
SPEARFISH      FAIR      54  32  43 W13G23    29.93R
WINNER         FAIR      64  53  67 S23       29.81S
$$

SDZ004>011-016>023-039-040-221100-
NORTHEAST SOUTH DAKOTA

CITY           SKY/WX    TMP DP  RH WIND       PRES   REMARKS
ABERDEEN       CLEAR     60  40  47 S22G33    29.81F
WATERTOWN      CLEAR     53  42  66 S22G31    29.91F
SISSETON         N/A     51  43  74 S18G26    29.88F
$$

SDZ017-020-022-023-036>040-048>070-221100-
SOUTHEAST SOUTH DAKOTA

CITY           SKY/WX    TMP DP  RH WIND       PRES   REMARKS
SIOUX FALLS    CLEAR     53  44  71 SE12      30.00S
HURON          CLEAR     55  40  56 S17G24    29.86F
CHAMBERLAIN    PTCLDY    60  49  68 S14G21    29.82S
MITCHELL       CLEAR     56  41  57 SE20      29.90S
YANKTON        CLEAR     54  41  62 SE12      29.98S
$$

ABBREVIATIONS USED IN REMARKS
   TC - TEMPERATURE IN CELSIUS
  WCI - WIND CHILL INDEX
   HX - HEAT INDEX
  VSB - VISIBILITY




USA.gov is the U.S. government's official web portal to all federal, state and local government web resources and services.